TimeWET,TemperatureF,Dew PointF,Humidity,Sea Level PressureIn,VisibilityMPH,Wind Direction,Wind SpeedMPH,Gust SpeedMPH,PrecipitationIn,Events,Conditions,WindDirDegrees,DateUTC
12:00 AM,60,53,70,30.02,6,NW,4.6,,,,Mostly Cloudy,310,2013-03-08 00:00:00
12:00 AM,59.0,51.8,77,30.04,6.2,NW,4.6,-,N/A,,Mostly Cloudy,310,2013-03-08 00:00:00
1:00 AM,59.0,53.6,82,30.01,6.2,Calm,Calm,-,N/A,,Mostly Cloudy,0,2013-03-08 01:00:00
2:00 AM,57.2,51.8,82,30.01,4.3,Variable,3.5,-,N/A,,Mostly Cloudy,0,2013-03-08 02:00:00
3:00 AM,54,49,77,30.00,6,West,2.3,,,,Mostly Cloudy,270,2013-03-08 03:00:00
3:00 AM,53.6,48.2,82,29.98,3.1,Variable,2.3,-,N/A,,Partly Cloudy,0,2013-03-08 03:00:00
4:00 AM,57.2,50.0,77,29.98,6.2,WSW,9.2,-,N/A,,Partly Cloudy,250,2013-03-08 04:00:00
5:00 AM,55.4,48.2,77,29.98,6.2,WNW,4.6,-,N/A,,Mostly Cloudy,300,2013-03-08 05:00:00
6:00 AM,54,48,73,30.00,6,South,20.7,,,,Mostly Cloudy,190,2013-03-08 06:00:00
6:00 AM,53.6,46.4,77,29.98,6.2,North,-9999.0,-,N/A,,Mostly Cloudy,0,2013-03-08 06:00:00
7:00 AM,51.8,46.4,82,30.01,6.2,Variable,2.3,-,N/A,,Scattered Clouds,0,2013-03-08 07:00:00
8:00 AM,62.6,53.6,72,30.01,6.2,Variable,6.9,-,N/A,,Scattered Clouds,0,2013-03-08 08:00:00
9:00 AM,66,56,61,29.98,6,WSW,13.8,,,,Partly Cloudy,240,2013-03-08 09:00:00
9:00 AM,68.0,57.2,68,30.01,6.2,WSW,13.8,-,N/A,,Scattered Clouds,240,2013-03-08 09:00:00
10:00 AM,68.0,55.4,64,30.04,6.2,West,17.3,-,N/A,,Scattered Clouds,270,2013-03-08 10:00:00
11:00 AM,69.8,53.6,56,30.01,6.2,West,16.1,-,N/A,,Scattered Clouds,260,2013-03-08 11:00:00
12:00 PM,73,56,46,29.94,6,WNW,18.4,,,,Partly Cloudy,300,2013-03-08 12:00:00
12:00 PM,73.4,57.2,57,29.98,6.2,WNW,18.4,-,N/A,,Scattered Clouds,300,2013-03-08 12:00:00
1:00 PM,68.0,57.2,68,29.98,6.2,NW,12.7,-,N/A,,Mostly Cloudy,310,2013-03-08 13:00:00
2:00 PM,64.4,60.8,88,29.98,5.0,NW,12.7,-,N/A,Rain,Light Rain,320,2013-03-08 14:00:00
3:00 PM,66,59,72,29.94,6,WSW,11.5,,,Rain,Light Rain,250,2013-03-08 15:00:00
3:00 PM,66.2,59.0,78,29.98,6.2,WSW,11.5,-,N/A,,Mostly Cloudy,250,2013-03-08 15:00:00
5:00 PM,66.2,60.8,83,29.98,6.2,West,10.4,-,N/A,,Scattered Clouds,280,2013-03-08 17:00:00
6:00 PM,65,57,68,29.95,6,WNW,6.9,,,,Mostly Cloudy,290,2013-03-08 18:00:00
6:00 PM,64.4,57.2,77,29.98,6.2,Variable,5.8,-,N/A,,Partly Cloudy,0,2013-03-08 18:00:00
7:00 PM,60.8,55.4,82,29.98,3.1,NW,9.2,-,N/A,Rain,Rain Showers,310,2013-03-08 19:00:00
8:00 PM,57.2,51.8,82,30.01,5.0,WNW,9.2,-,N/A,,Partly Cloudy,290,2013-03-08 20:00:00
9:00 PM,57,52,78,30.04,5,NW,9.2,,,Rain,Light Rain Showers,320,2013-03-08 21:00:00
9:00 PM,57.2,51.8,82,30.04,5.0,NW,9.2,-,N/A,Rain,Rain,310,2013-03-08 21:00:00
10:00 PM,57.2,51.8,82,30.04,5.0,WNW,6.9,-,N/A,,Partly Cloudy,300,2013-03-08 22:00:00
11:00 PM,57.2,51.8,82,30.04,5.0,Variable,3.5,-,N/A,,Partly Cloudy,0,2013-03-08 23:00:00